Waarschuwingen Friesland

Code Groen. Er zijn momenteel geen waarschuwingen van kracht.

Bron: KNMI


Webcam Zuidwest  Webcam Zuidwest


Onweer radar more information blitzortung!


Regen radar more information rain snow radar


Weerstation Noordbergum

Weerstation Luyksgestel

Website Noardburgum


U vindt ons ook hier:

Het Weer Aktueel

UK Metoffice

European Weather Network

Weather Underground

AWEKAS

Citizen Weather Observer Program (CWOP)

HAMweather, WeatherForYou, PWS Weather



IFRIESLA82 History tables / reports. Script startWUhistory.php

Select another period ( hide this area )

Eenheden Periode Custom range Directly to
Metrisch Engels Beide
Dagelijkse Wekelijkse Maandelijkse Jaarlijkse
use both date-selectors for a custom range
previous Dag
With this date

WeatherUnderground graphs for this period ( click here ) Loading the graph can take up to a minute!


Dagelijkse Samenvatting Donderdag mei 26 2022
Tijd Temp. ( °C ) Dew pt. ( °C ) Wind ( km/h ) van Windvlaag ( km/h ) Luchtdruk ( hPa ) Humid.( % ) Rainrate ( cm ) Zonneschijn ( W/m2 )
Hoog18,6 13,3 23,0 WZW ( 729/1741 ) 24,0 1018,6 91 - 1076
Gemiddeld14,5 11,5 10,7 WZW #71/162 15,4 1016,2 82 - 356 #97/162
Laag11,8 9,7 3,0   5,0 1013,6 67 -  
Dagelijkse Tabular details for Donderdag mei 26 2022
Tijd Temp. ( °C ) Dew pt. ( °C ) Wind ( km/h ) van Windvlaag ( km/h ) Luchtdruk ( hPa ) Humid.( % ) Rainrate ( cm ) Zonneschijn ( W/m2 )
00:04 13,9 12,1 11,0 ZW 16,0 1013,6 89 - -
00:09 13,9 12,1 14,0 ZW 16,0 1013,6 89 - -
00:14 13,8 12,2 11,0 ZW 19,0 1013,6 90 - -
00:19 13,9 12,3 20,0 WZW 19,0 1013,6 90 - -
00:24 13,9 12,3 14,0 ZW 19,0 1013,6 90 - -
00:29 13,9 12,3 23,0 ZW 23,0 1013,6 90 - -
00:34 14,0 12,4 10,0 ZW 16,0 1013,6 90 - -
00:39 14,0 12,4 14,0 WZW 23,0 1013,6 90 - -
00:44 14,1 12,5 14,0 WZW 19,0 1013,6 90 - -
00:49 14,1 12,3 11,0 ZW 19,0 1013,6 89 - -
00:54 14,1 12,3 14,0 WZW 21,0 1013,6 89 - -
00:59 14,1 12,5 14,0 ZW 19,0 1013,6 90 - -
01:04 14,1 12,5 10,0 WZW 16,0 1013,6 90 - -
01:09 14,1 12,5 14,0 WZW 19,0 1013,6 90 - -
01:14 14,2 12,5 14,0 WZW 19,0 1013,6 90 - -
01:19 14,2 12,4 11,0 WZW 19,0 1013,9 89 - -
01:24 14,2 12,4 13,0 WZW 16,0 1013,6 89 - -
01:29 14,2 12,4 11,0 ZW 16,0 1013,9 89 - -
01:34 14,1 12,3 11,0 ZW 18,0 1013,9 89 - -
01:39 14,0 12,2 11,0 ZW 18,0 1013,9 89 - -
01:44 14,0 12,3 11,0 WZW 15,0 1013,9 90 - -
01:49 13,9 12,3 14,0 WZW 15,0 1013,9 90 - -
01:54 13,9 12,3 10,0 WZW 15,0 1013,9 90 - -
01:59 13,8 12,2 13,0 WZW 16,0 1013,9 90 - -
02:04 13,8 12,2 11,0 WZW 16,0 1013,9 90 - -
02:09 13,7 12,1 13,0 ZW 16,0 1013,9 90 - -
02:14 13,6 12,0 10,0 ZW 15,0 1013,9 90 - -
02:19 13,5 11,9 10,0 ZW 18,0 1013,9 90 - -
02:24 13,4 12,0 8,0 ZW 11,0 1013,9 91 - -
02:29 13,4 12,0 11,0 WZW 16,0 1014,2 91 - -
02:34 13,3 11,9 13,0 WZW 13,0 1014,2 91 - -
02:39 13,4 12,0 8,0 WZW 13,0 1014,2 91 - -
02:44 13,4 12,0 10,0 ZW 10,0 1014,2 91 - -
02:49 13,4 12,0 11,0 ZW 15,0 1014,2 91 - -
02:54 13,4 12,0 8,0 ZW 11,0 1014,2 91 - -
02:59 13,3 11,9 10,0 ZW 13,0 1014,2 91 - -
03:04 13,4 12,0 10,0 ZW 13,0 1014,2 91 - -
03:09 13,4 12,0 8,0 ZW 10,0 1014,2 91 - -
03:14 13,3 11,9 8,0 ZW 13,0 1014,6 91 - -
03:19 13,4 12,0 10,0 ZW 11,0 1014,6 91 - -
03:24 13,4 12,0 6,0 ZW 11,0 1014,6 91 - -
03:29 13,3 11,9 6,0 ZW 10,0 1014,6 91 - -
03:34 13,4 12,0 10,0 ZW 11,0 1014,6 91 - -
03:39 13,3 11,9 6,0 ZW 10,0 1014,6 91 - -
03:44 13,3 11,9 3,0 WZW 11,0 1014,6 91 - -
03:49 13,2 11,8 13,0 WZW 13,0 1014,6 91 - -
03:54 13,3 11,8 10,0 WZW 13,0 1014,6 91 - -
03:59 13,4 11,7 11,0 WZW 13,0 1014,6 90 - -
04:04 13,4 11,6 8,0 Westen 13,0 1014,6 89 - -
04:09 13,4 11,5 5,0 WZW 13,0 1014,9 88 - -
04:14 13,4 11,3 5,0 WZW 11,0 1014,9 87 - -
04:19 13,3 11,2 10,0 WZW 10,0 1014,9 87 - -
04:24 13,3 11,2 13,0 Westen 15,0 1014,9 87 - -
04:29 13,2 10,9 6,0 ZW 15,0 1014,9 86 - -
04:34 13,1 11,0 5,0 Westen 15,0 1014,9 87 - -
04:39 12,9 10,8 5,0 WZW 11,0 1014,9 87 - -
04:44 12,9 10,8 6,0 WZW 8,0 1014,9 87 - -
04:49 12,7 10,6 6,0 WZW 8,0 1015,2 87 - -
04:54 12,6 10,5 5,0 WZW 6,0 1015,2 87 - -
04:59 12,5 10,4 6,0 WZW 6,0 1015,2 87 - -
05:04 12,4 10,3 5,0 Westen 8,0 1015,2 87 - -
05:09 12,4 10,3 3,0 WZW 6,0 1015,2 87 - -
05:14 12,4 10,3 5,0 Westen 11,0 1015,2 87 - -
05:19 12,6 10,5 5,0 Westen 11,0 1015,2 87 - -
05:24 12,6 10,3 5,0 Westen 5,0 1015,2 86 - -
05:29 12,6 10,3 6,0 WZW 6,0 1015,2 86 - 5
05:34 12,6 10,3 3,0 WZW 5,0 1015,2 86 - 7
05:39 12,4 10,3 6,0 WZW 6,0 1015,2 87 - 9
05:44 12,4 10,1 3,0 WZW 6,0 1015,2 86 - 11
05:49 12,3 10,2 5,0 Westen 10,0 1015,6 87 - 11
05:54 12,2 10,1 13,0 Westen 13,0 1015,6 87 - 12
05:59 12,2 10,1 5,0 Westen 13,0 1015,6 87 - 14
06:04 12,2 10,1 6,0 Westen 6,0 1015,9 87 - 19
06:09 12,1 10,0 5,0 WZW 5,0 1015,9 87 - 19
06:14 12,1 10,0 3,0 Westen 8,0 1015,9 87 - 30
06:19 12,1 10,0 3,0 WZW 8,0 1015,9 87 - 32
06:24 12,0 9,9 3,0 WZW 5,0 1015,9 87 - 35
06:29 11,9 9,8 3,0 Westen 5,0 1015,9 87 - 26
06:34 11,9 9,8 3,0 Westen 5,0 1015,9 87 - 26
06:39 11,8 9,7 5,0 WZW 6,0 1015,9 87 - 37
06:44 11,9 10,0 3,0 Westen 5,0 1016,3 88 - 26
06:49 11,9 9,8 5,0 WZW 6,0 1016,3 87 - 28
06:54 12,1 10,0 3,0 Westen 6,0 1016,3 87 - 33
06:59 12,2 10,1 6,0 Westen 6,0 1016,3 87 - 33
07:04 12,4 10,3 3,0 WZW 6,0 1016,3 87 - 139
07:09 12,5 10,4 6,0 WZW 13,0 1016,3 87 - 155
07:14 12,7 10,5 5,0 WZW 13,0 1016,3 87 - 162
07:19 12,7 10,4 5,0 ZW 5,0 1016,3 86 - 176
07:24 13,0 10,8 6,0 WZW 11,0 1016,6 87 - 188
07:29 13,3 10,9 8,0 WZW 16,0 1016,6 86 - 199
07:34 13,5 11,0 6,0 WZW 16,0 1016,6 85 - 209
07:39 13,6 11,0 8,0 WZW 11,0 1016,6 85 - 221
07:44 13,7 11,0 10,0 Westen 11,0 1016,6 84 - 234
07:49 13,8 11,1 16,0 WZW 18,0 1016,6 84 - 244
07:54 13,9 11,1 13,0 WZW 18,0 1016,6 83 - 258
07:59 14,1 11,3 10,0 Westen 16,0 1016,6 83 - 267
08:04 14,1 11,3 11,0 WZW 16,0 1016,9 83 - 283
08:09 14,2 11,2 14,0 WZW 15,0 1016,9 82 - 373
08:14 14,4 11,2 21,0 Westen 23,0 1016,9 82 - 373
08:19 14,4 11,2 11,0 Westen 23,0 1016,9 81 - 151
08:24 14,3 11,3 11,0 Westen 23,0 1016,9 82 - 165
08:29 14,3 11,1 11,0 Westen 23,0 1016,9 81 - 385
08:34 14,7 11,7 14,0 ZW 15,0 1017,3 82 - 417
08:39 14,9 11,7 14,0 Westen 15,0 1017,3 82 - 417
08:44 14,9 11,5 14,0 Westen 15,0 1017,3 80 - 269
08:49 14,8 11,4 13,0 WZW 21,0 1017,3 80 - 163
08:54 14,6 11,0 11,0 Westen 23,0 1017,3 80 - 281
08:59 14,6 11,2 13,0 WNW 13,0 1017,3 80 - 418
09:04 14,7 11,4 16,0 Westen 18,0 1017,3 81 - 378
09:09 14,7 11,3 11,0 WZW 11,0 1017,6 80 - 378
09:14 14,8 11,4 11,0 WZW 18,0 1017,6 80 - 262
09:19 14,9 11,3 11,0 Westen 15,0 1017,6 79 - 301
09:24 15,1 11,5 10,0 Westen 18,0 1017,6 79 - 369
09:29 15,1 11,3 14,0 Westen 21,0 1017,6 78 - 297
09:34 15,3 11,5 11,0 WZW 16,0 1018,0 78 - 281
09:39 15,2 11,2 18,0 Westen 19,0 1018,0 77 - 332
09:44 15,3 11,3 16,0 WNW 18,0 1018,0 77 - 606
09:49 15,5 11,4 16,0 Westen 19,0 1018,0 77 - 606
09:54 15,6 11,6 13,0 Westen 23,0 1018,0 77 - 371
09:59 15,6 11,4 13,0 Westen 16,0 1018,0 76 - 299
10:04 15,6 11,4 13,0 Westen 21,0 1018,0 76 - 313
10:09 15,7 11,5 14,0 Westen 21,0 1018,0 76 - 373
10:14 15,8 11,6 13,0 WNW 15,0 1018,0 76 - 322
10:19 15,8 11,6 16,0 WNW 18,0 1018,3 76 - 429
10:24 15,9 11,5 14,0 WNW 16,0 1018,3 75 - 522
10:29 16,1 11,4 16,0 Westen 21,0 1018,3 74 - 468
10:34 16,2 10,9 14,0 Westen 23,0 1018,3 71 - 543
10:39 16,4 10,9 21,0 Westen 23,0 1018,3 70 - 543
10:44 16,6 11,1 13,0 Westen 23,0 1018,6 70 - 591
10:49 16,7 11,4 11,0 Westen 21,0 1018,3 71 - 591
10:54 16,7 11,2 13,0 Westen 16,0 1018,3 70 - 729
10:59 16,9 11,2 11,0 WZW 21,0 1018,3 69 - 738
11:04 17,1 11,1 16,0 Westen 16,0 1018,3 68 - 696
11:09 17,2 11,6 10,0 Westen 18,0 1018,3 70 - 710
11:14 17,4 11,4 8,0 Westen 16,0 1018,6 68 - 714
11:19 17,7 11,9 18,0 Westen 23,0 1018,6 69 - 758
11:24 17,9 11,7 8,0 WNW 21,0 1018,6 67 - 819
11:29 17,8 11,7 14,0 WZW 21,0 1018,6 68 - 837
11:34 17,6 11,6 10,0 Westen 21,0 1018,6 69 - 824
11:39 17,3 11,6 6,0 Westen 16,0 1018,6 69 - 921
11:44 18,1 12,1 8,0 WZW 18,0 1018,6 69 - 944
11:49 18,1 11,9 14,0 WZW 19,0 1018,6 67 - 944
11:54 18,1 11,9 11,0 WZW 15,0 1018,6 67 - 346
11:59 17,9 12,0 21,0 WZW 23,0 1018,6 69 - 371
12:04 17,7 11,7 13,0 WZW 23,0 1018,6 68 - 617
12:09 17,6 11,6 20,0 WZW 24,0 1018,6 68 - 338
12:14 17,4 11,7 13,0 ZW 24,0 1018,6 69 - 283
12:19 17,4 12,1 13,0 WZW 24,0 1018,6 71 - 325
12:24 17,7 12,4 11,0 WZW 24,0 1018,6 71 - 434
12:29 17,7 12,4 14,0 WZW 19,0 1018,6 71 - 329
12:34 17,6 11,9 13,0 WZW 23,0 1018,6 70 - 355
12:39 18,4 13,3 18,0 ZW 24,0 1018,6 72 - 1076
12:44 18,4 12,8 16,0 ZW 24,0 1018,6 70 - 316
12:49 17,9 12,4 20,0 ZW 21,0 1018,6 71 - 394
12:54 18,2 12,9 20,0 WZW 24,0 1018,6 71 - 1030
12:59 18,6 13,2 11,0 Westen 24,0 1018,6 71 - 1072
13:04 18,3 12,8 8,0 WZW 15,0 1018,6 71 - 332
13:09 18,1 12,8 21,0 ZW 23,0 1018,6 71 - 332
13:14 18,0 12,4 20,0 WZW 21,0 1018,6 71 - 285
13:19 17,7 12,4 16,0 WZW 19,0 1018,6 71 - 322
13:24 17,8 12,4 18,0 WZW 24,0 1018,6 71 - 353
13:28 17,7 11,9 20,0 ZW 24,0 1018,6 69 - 216
Dagelijkse Samenvatting Donderdag mei 26 2022
Tijd Temp. ( °C ) Dew pt. ( °C ) Wind ( km/h ) van Windvlaag ( km/h ) Luchtdruk ( hPa ) Humid.( % ) Rainrate ( cm ) Zonneschijn ( W/m2 )
Hoog18,6 13,3 23,0 WZW ( 729/1741 ) 24,0 1018,6 91 - 1076
Gemiddeld14,5 11,5 10,7 WZW #71/162 15,4 1016,2 82 - 356 #97/162
Laag11,8 9,7 3,0   5,0 1013,6 67 -  
Dagelijkse Tabular details for Donderdag mei 26 2022
Tijd Temp. ( °C ) Dew pt. ( °C ) Wind ( km/h ) van Windvlaag ( km/h ) Luchtdruk ( hPa ) Humid.( % ) Rainrate ( cm ) Zonneschijn ( W/m2 )
00:04 13,9 12,1 11,0 ZW 16,0 1013,6 89 - -
00:09 13,9 12,1 14,0 ZW 16,0 1013,6 89 - -
00:14 13,8 12,2 11,0 ZW 19,0 1013,6 90 - -
00:19 13,9 12,3 20,0 WZW 19,0 1013,6 90 - -
00:24 13,9 12,3 14,0 ZW 19,0 1013,6 90 - -
00:29 13,9 12,3 23,0 ZW 23,0 1013,6 90 - -
00:34 14,0 12,4 10,0 ZW 16,0 1013,6 90 - -
00:39 14,0 12,4 14,0 WZW 23,0 1013,6 90 - -
00:44 14,1 12,5 14,0 WZW 19,0 1013,6 90 - -
00:49 14,1 12,3 11,0 ZW 19,0 1013,6 89 - -
00:54 14,1 12,3 14,0 WZW 21,0 1013,6 89 - -
00:59 14,1 12,5 14,0 ZW 19,0 1013,6 90 - -
01:04 14,1 12,5 10,0 WZW 16,0 1013,6 90 - -
01:09 14,1 12,5 14,0 WZW 19,0 1013,6 90 - -
01:14 14,2 12,5 14,0 WZW 19,0 1013,6 90 - -
01:19 14,2 12,4 11,0 WZW 19,0 1013,9 89 - -
01:24 14,2 12,4 13,0 WZW 16,0 1013,6 89 - -
01:29 14,2 12,4 11,0 ZW 16,0 1013,9 89 - -
01:34 14,1 12,3 11,0 ZW 18,0 1013,9 89 - -
01:39 14,0 12,2 11,0 ZW 18,0 1013,9 89 - -
01:44 14,0 12,3 11,0 WZW 15,0 1013,9 90 - -
01:49 13,9 12,3 14,0 WZW 15,0 1013,9 90 - -
01:54 13,9 12,3 10,0 WZW 15,0 1013,9 90 - -
01:59 13,8 12,2 13,0 WZW 16,0 1013,9 90 - -
02:04 13,8 12,2 11,0 WZW 16,0 1013,9 90 - -
02:09 13,7 12,1 13,0 ZW 16,0 1013,9 90 - -
02:14 13,6 12,0 10,0 ZW 15,0 1013,9 90 - -
02:19 13,5 11,9 10,0 ZW 18,0 1013,9 90 - -
02:24 13,4 12,0 8,0 ZW 11,0 1013,9 91 - -
02:29 13,4 12,0 11,0 WZW 16,0 1014,2 91 - -
02:34 13,3 11,9 13,0 WZW 13,0 1014,2 91 - -
02:39 13,4 12,0 8,0 WZW 13,0 1014,2 91 - -
02:44 13,4 12,0 10,0 ZW 10,0 1014,2 91 - -
02:49 13,4 12,0 11,0 ZW 15,0 1014,2 91 - -
02:54 13,4 12,0 8,0 ZW 11,0 1014,2 91 - -
02:59 13,3 11,9 10,0 ZW 13,0 1014,2 91 - -
03:04 13,4 12,0 10,0 ZW 13,0 1014,2 91 - -
03:09 13,4 12,0 8,0 ZW 10,0 1014,2 91 - -
03:14 13,3 11,9 8,0 ZW 13,0 1014,6 91 - -
03:19 13,4 12,0 10,0 ZW 11,0 1014,6 91 - -
03:24 13,4 12,0 6,0 ZW 11,0 1014,6 91 - -
03:29 13,3 11,9 6,0 ZW 10,0 1014,6 91 - -
03:34 13,4 12,0 10,0 ZW 11,0 1014,6 91 - -
03:39 13,3 11,9 6,0 ZW 10,0 1014,6 91 - -
03:44 13,3 11,9 3,0 WZW 11,0 1014,6 91 - -
03:49 13,2 11,8 13,0 WZW 13,0 1014,6 91 - -
03:54 13,3 11,8 10,0 WZW 13,0 1014,6 91 - -
03:59 13,4 11,7 11,0 WZW 13,0 1014,6 90 - -
04:04 13,4 11,6 8,0 Westen 13,0 1014,6 89 - -
04:09 13,4 11,5 5,0 WZW 13,0 1014,9 88 - -
04:14 13,4 11,3 5,0 WZW 11,0 1014,9 87 - -
04:19 13,3 11,2 10,0 WZW 10,0 1014,9 87 - -
04:24 13,3 11,2 13,0 Westen 15,0 1014,9 87 - -
04:29 13,2 10,9 6,0 ZW 15,0 1014,9 86 - -
04:34 13,1 11,0 5,0 Westen 15,0 1014,9 87 - -
04:39 12,9 10,8 5,0 WZW 11,0 1014,9 87 - -
04:44 12,9 10,8 6,0 WZW 8,0 1014,9 87 - -
04:49 12,7 10,6 6,0 WZW 8,0 1015,2 87 - -
04:54 12,6 10,5 5,0 WZW 6,0 1015,2 87 - -
04:59 12,5 10,4 6,0 WZW 6,0 1015,2 87 - -
05:04 12,4 10,3 5,0 Westen 8,0 1015,2 87 - -
05:09 12,4 10,3 3,0 WZW 6,0 1015,2 87 - -
05:14 12,4 10,3 5,0 Westen 11,0 1015,2 87 - -
05:19 12,6 10,5 5,0 Westen 11,0 1015,2 87 - -
05:24 12,6 10,3 5,0 Westen 5,0 1015,2 86 - -
05:29 12,6 10,3 6,0 WZW 6,0 1015,2 86 - 5
05:34 12,6 10,3 3,0 WZW 5,0 1015,2 86 - 7
05:39 12,4 10,3 6,0 WZW 6,0 1015,2 87 - 9
05:44 12,4 10,1 3,0 WZW 6,0 1015,2 86 - 11
05:49 12,3 10,2 5,0 Westen 10,0 1015,6 87 - 11
05:54 12,2 10,1 13,0 Westen 13,0 1015,6 87 - 12
05:59 12,2 10,1 5,0 Westen 13,0 1015,6 87 - 14
06:04 12,2 10,1 6,0 Westen 6,0 1015,9 87 - 19
06:09 12,1 10,0 5,0 WZW 5,0 1015,9 87 - 19
06:14 12,1 10,0 3,0 Westen 8,0 1015,9 87 - 30
06:19 12,1 10,0 3,0 WZW 8,0 1015,9 87 - 32
06:24 12,0 9,9 3,0 WZW 5,0 1015,9 87 - 35
06:29 11,9 9,8 3,0 Westen 5,0 1015,9 87 - 26
06:34 11,9 9,8 3,0 Westen 5,0 1015,9 87 - 26
06:39 11,8 9,7 5,0 WZW 6,0 1015,9 87 - 37
06:44 11,9 10,0 3,0 Westen 5,0 1016,3 88 - 26
06:49 11,9 9,8 5,0 WZW 6,0 1016,3 87 - 28
06:54 12,1 10,0 3,0 Westen 6,0 1016,3 87 - 33
06:59 12,2 10,1 6,0 Westen 6,0 1016,3 87 - 33
07:04 12,4 10,3 3,0 WZW 6,0 1016,3 87 - 139
07:09 12,5 10,4 6,0 WZW 13,0 1016,3 87 - 155
07:14 12,7 10,5 5,0 WZW 13,0 1016,3 87 - 162
07:19 12,7 10,4 5,0 ZW 5,0 1016,3 86 - 176
07:24 13,0 10,8 6,0 WZW 11,0 1016,6 87 - 188
07:29 13,3 10,9 8,0 WZW 16,0 1016,6 86 - 199
07:34 13,5 11,0 6,0 WZW 16,0 1016,6 85 - 209
07:39 13,6 11,0 8,0 WZW 11,0 1016,6 85 - 221
07:44 13,7 11,0 10,0 Westen 11,0 1016,6 84 - 234
07:49 13,8 11,1 16,0 WZW 18,0 1016,6 84 - 244
07:54 13,9 11,1 13,0 WZW 18,0 1016,6 83 - 258
07:59 14,1 11,3 10,0 Westen 16,0 1016,6 83 - 267
08:04 14,1 11,3 11,0 WZW 16,0 1016,9 83 - 283
08:09 14,2 11,2 14,0 WZW 15,0 1016,9 82 - 373
08:14 14,4 11,2 21,0 Westen 23,0 1016,9 82 - 373
08:19 14,4 11,2 11,0 Westen 23,0 1016,9 81 - 151
08:24 14,3 11,3 11,0 Westen 23,0 1016,9 82 - 165
08:29 14,3 11,1 11,0 Westen 23,0 1016,9 81 - 385
08:34 14,7 11,7 14,0 ZW 15,0 1017,3 82 - 417
08:39 14,9 11,7 14,0 Westen 15,0 1017,3 82 - 417
08:44 14,9 11,5 14,0 Westen 15,0 1017,3 80 - 269
08:49 14,8 11,4 13,0 WZW 21,0 1017,3 80 - 163
08:54 14,6 11,0 11,0 Westen 23,0 1017,3 80 - 281
08:59 14,6 11,2 13,0 WNW 13,0 1017,3 80 - 418
09:04 14,7 11,4 16,0 Westen 18,0 1017,3 81 - 378
09:09 14,7 11,3 11,0 WZW 11,0 1017,6 80 - 378
09:14 14,8 11,4 11,0 WZW 18,0 1017,6 80 - 262
09:19 14,9 11,3 11,0 Westen 15,0 1017,6 79 - 301
09:24 15,1 11,5 10,0 Westen 18,0 1017,6 79 - 369
09:29 15,1 11,3 14,0 Westen 21,0 1017,6 78 - 297
09:34 15,3 11,5 11,0 WZW 16,0 1018,0 78 - 281
09:39 15,2 11,2 18,0 Westen 19,0 1018,0 77 - 332
09:44 15,3 11,3 16,0 WNW 18,0 1018,0 77 - 606
09:49 15,5 11,4 16,0 Westen 19,0 1018,0 77 - 606
09:54 15,6 11,6 13,0 Westen 23,0 1018,0 77 - 371
09:59 15,6 11,4 13,0 Westen 16,0 1018,0 76 - 299
10:04 15,6 11,4 13,0 Westen 21,0 1018,0 76 - 313
10:09 15,7 11,5 14,0 Westen 21,0 1018,0 76 - 373
10:14 15,8 11,6 13,0 WNW 15,0 1018,0 76 - 322
10:19 15,8 11,6 16,0 WNW 18,0 1018,3 76 - 429
10:24 15,9 11,5 14,0 WNW 16,0 1018,3 75 - 522
10:29 16,1 11,4 16,0 Westen 21,0 1018,3 74 - 468
10:34 16,2 10,9 14,0 Westen 23,0 1018,3 71 - 543
10:39 16,4 10,9 21,0 Westen 23,0 1018,3 70 - 543
10:44 16,6 11,1 13,0 Westen 23,0 1018,6 70 - 591
10:49 16,7 11,4 11,0 Westen 21,0 1018,3 71 - 591
10:54 16,7 11,2 13,0 Westen 16,0 1018,3 70 - 729
10:59 16,9 11,2 11,0 WZW 21,0 1018,3 69 - 738
11:04 17,1 11,1 16,0 Westen 16,0 1018,3 68 - 696
11:09 17,2 11,6 10,0 Westen 18,0 1018,3 70 - 710
11:14 17,4 11,4 8,0 Westen 16,0 1018,6 68 - 714
11:19 17,7 11,9 18,0 Westen 23,0 1018,6 69 - 758
11:24 17,9 11,7 8,0 WNW 21,0 1018,6 67 - 819
11:29 17,8 11,7 14,0 WZW 21,0 1018,6 68 - 837
11:34 17,6 11,6 10,0 Westen 21,0 1018,6 69 - 824
11:39 17,3 11,6 6,0 Westen 16,0 1018,6 69 - 921
11:44 18,1 12,1 8,0 WZW 18,0 1018,6 69 - 944
11:49 18,1 11,9 14,0 WZW 19,0 1018,6 67 - 944
11:54 18,1 11,9 11,0 WZW 15,0 1018,6 67 - 346
11:59 17,9 12,0 21,0 WZW 23,0 1018,6 69 - 371
12:04 17,7 11,7 13,0 WZW 23,0 1018,6 68 - 617
12:09 17,6 11,6 20,0 WZW 24,0 1018,6 68 - 338
12:14 17,4 11,7 13,0 ZW 24,0 1018,6 69 - 283
12:19 17,4 12,1 13,0 WZW 24,0 1018,6 71 - 325
12:24 17,7 12,4 11,0 WZW 24,0 1018,6 71 - 434
12:29 17,7 12,4 14,0 WZW 19,0 1018,6 71 - 329
12:34 17,6 11,9 13,0 WZW 23,0 1018,6 70 - 355
12:39 18,4 13,3 18,0 ZW 24,0 1018,6 72 - 1076
12:44 18,4 12,8 16,0 ZW 24,0 1018,6 70 - 316
12:49 17,9 12,4 20,0 ZW 21,0 1018,6 71 - 394
12:54 18,2 12,9 20,0 WZW 24,0 1018,6 71 - 1030
12:59 18,6 13,2 11,0 Westen 24,0 1018,6 71 - 1072
13:04 18,3 12,8 8,0 WZW 15,0 1018,6 71 - 332
13:09 18,1 12,8 21,0 ZW 23,0 1018,6 71 - 332
13:14 18,0 12,4 20,0 WZW 21,0 1018,6 71 - 285
13:19 17,7 12,4 16,0 WZW 19,0 1018,6 71 - 322
13:24 17,8 12,4 18,0 WZW 24,0 1018,6 71 - 353
13:28 17,7 11,9 20,0 ZW 24,0 1018,6 69 - 216

Download your copy of this data-set  here

Our weather-data as stored at Weather Underground. Script ontwikkeld door Jim McMurry. Rewritten for template use Leuven-Template

Apparatuur in gebruik:

Weerstation
Davis Vantage pro 2

Weerprogramma
Meteobridge

Weercomputer
Meteobridge Nano SD

Webleverancier
Versio

Davis Vantage pro 2

Meteobridge

Meteobridge Nano SD

Versio